ONEWEB-0130

Last updated on Mon Jan 18 2021 00:02:03 GMT+0000 (Coordinated Universal Time)

1 47276U 20100U 21017.58334491 -.01468378 00000-0 -94535-1 0 9993 2 47276 87.4423 29.0849 0009423 140.7194 33.6895 15.11620798 1861

Satellite not in orbit

ONEWEB-0130